This demonstration page uses our WeatherBlox Daily Observations layout. Learn more.

Left ArrowRight Arrow

Hourly Observations for August 28, 2015

Temp ( °F °C ) Dew Point ( °F °C ) Humidity (%) Winds ( mph kmh ) Pressure ( in mb ) Visibility ( mi km ) Precip ( " mm )
12:53 am 00:53 Clear 74 23.3 50 10 43 43 NNW 3 6 29.88 1012 10 16 0.00 0.00
1:53 am 01:53 Clear 74 23.3 48 8.9 40 40 Calm 29.89 1012 10 16 0.00 0.00
2:53 am 02:53 Clear 71 21.7 49 9.4 46 46 Calm 29.88 1012 10 16 0.00 0.00
3:53 am 03:53 Clear 73 22.8 49 9.4 43 43 N 3 6 29.89 1012 10 16 0.00 0.00
4:53 am 04:53 Clear 73 22.8 49 9.4 43 43 Calm 29.88 1012 10 16 0.00 0.00
5:53 am 05:53 Clear 71 21.7 50 10 47 47 Calm 29.87 1012 10 16 0.00 0.00
6:53 am 06:53 Sunny 72 22.2 50 10 46 46 NNE 3 6 29.87 1012 10 16 0.00 0.00
7:53 am 07:53 Sunny 77 25 51 10.6 40 40 NNE 3 6 29.87 1012 10 16 0.00 0.00
8:53 am 08:53 Sunny 79 26.1 51 10.6 38 38 W 5 7 29.88 1012 10 16 0.00 0.00
9:53 am 09:53 Sunny 85 29.4 49 9.4 29 29 VRB 3 6 29.88 1012 10 16 0.00 0.00
10:53 am 10:53 Sunny with Smoke 89 31.7 46 7.8 23 23 Calm 29.87 1011 6 10 0.00 0.00
11:53 am 11:53 Sunny 91 32.8 45 7.2 20 20 VRB 6 9 29.85 1011 10 16 0.00 0.00
12:53 pm 12:53 Sunny 93 33.9 46 7.8 20 20 VRB 5 7 29.83 1010 10 16 0.00 0.00
1:53 pm 13:53 Sunny 96 35.6 47 8.3 19 19 SE 8 13 29.81 1010 10 16 0.00 0.00
2:53 pm 14:53 Sunny 98 36.7 45 7.2 16 16 S 13 20 29.78 1008 10 16 0.00 0.00
3:53 pm 15:53 Sunny 100 37.8 41 5 13 13 SSW 18 30 29.74 1007 10 16 0.00 0.00
4:53 pm 16:53 Sunny 98 36.7 44 6.7 16 16 S 15 24 29.72 1006 10 16 0.00 0.00
5:53 pm 17:53 Sunny 96 35.6 44 6.7 17 17 SSW 12 19 29.70 1006 10 16 0.00 0.00
6:53 pm 18:53 Sunny 95 35 45 7.2 18 18 S 16 26 29.69 1005 10 16 0.00 0.00
7:53 pm 19:53 Clear 92 33.3 45 7.2 20 20 S 16 26 29.67 1005 10 16 0.00 0.00
8:53 pm 20:53 Clear 92 33.3 48 8.9 22 22 S 18 30 29.68 1005 10 16 0.00 0.00
9:53 pm 21:53 Clear 90 32.2 51 10.6 26 26 S 17 28 29.69 1005 10 16 0.00 0.00
10:53 pm 22:53 Clear 87 30.6 51 10.6 29 29 SSE 16 26 29.69 1005 10 16 0.00 0.00
11:53 pm 23:53 Clear 86 30 48 8.9 27 27 SSE 25 41 29.69 1006 10 16 0.00 0.00

Powered by AerisWeather